Location: Oshawa
(43.9000°N, 78.8670°W)
Time: 09:31:07
(UTC-04:00)

Cosmos 839 Rocket - Visible Passes

Search period start: 31 July 2014 00:00
Search period end: 10 August 2014 00:00
Orbit: 967 x 2085 km, 65.9° (Epoch: 29 July)

Date Brightness Start Highest point End Pass type
(mag) Time Alt. Az. Time Alt. Az. Time Alt. Az.
31 Jul 5.7 00:05:17 10° WSW 00:13:29 41° NW 00:20:09 10° NNE visible
31 Jul 7.0 02:12:13 10° NW 02:15:48 14° NNW 02:19:08 10° N visible
31 Jul 7.0 04:17:13 10° N 04:19:40 12° NNE 04:22:02 10° NE visible
31 Jul 5.2 21:22:51 10° S 21:31:19 37° ESE 21:38:12 10° NE visible
31 Jul 5.2 23:22:28 10° SW 23:31:22 56° NW 23:38:26 10° NNE visible
01 Aug 6.8 01:28:12 10° WNW 01:33:05 17° NNW 01:37:29 10° NNE visible
01 Aug 7.1 03:35:21 10° N 03:36:48 11° N 03:38:14 10° NNE visible
01 Aug 4.8 22:40:03 10° SW 22:49:21 78° WNW 22:56:38 10° NNE visible
02 Aug 6.6 00:44:24 10° W 00:50:31 23° NW 00:55:50 10° NNE visible
02 Aug 7.1 02:52:36 10° NNW 02:53:53 11° N 02:55:09 10° N visible
02 Aug 6.8 04:52:59 10° NNW 04:57:23 19° NNE 05:01:38 10° ENE visible
02 Aug 4.6 21:58:02 10° SSW 22:07:25 76° ESE 22:14:45 10° NE visible
03 Aug 6.2 00:00:53 10° W 00:08:07 30° NW 00:14:11 10° NNE visible
03 Aug 7.1 02:08:44 10° NNW 02:10:59 12° NNW 02:13:09 10° N visible
03 Aug 6.9 04:11:20 10° N 04:14:46 15° NNE 04:18:05 10° NE visible
03 Aug 4.8 21:16:27 10° S 21:25:32 53° ESE 21:32:45 10° NE visible
03 Aug 5.8 23:17:43 10° WSW 23:25:52 41° NW 23:32:30 10° NNE visible
04 Aug 7.1 01:24:37 10° NW 01:28:09 14° NNW 01:31:27 10° N visible
04 Aug 7.1 03:29:40 10° N 03:32:00 12° NNE 03:34:16 10° NE visible
04 Aug 5.9 05:28:45 10° NNW 05:34:29 35° NE 05:40:08 10° ESE visible
04 Aug 5.3 22:34:56 10° SW 22:43:45 57° NW 22:50:47 10° NNE visible
05 Aug 6.9 00:40:36 10° WNW 00:45:27 17° NNW 00:49:48 10° NNE visible
05 Aug 7.2 02:47:51 10° N 02:49:09 11° N 02:50:25 10° NNE visible
05 Aug 6.4 04:47:03 10° NNW 04:52:11 25° NE 04:57:13 10° E visible
05 Aug 4.8 21:52:31 10° SW 22:01:45 79° WNW 22:08:59 10° NNE visible
05 Aug 6.7 23:56:49 10° W 00:02:53 23° NW 00:08:10 10° NNE visible
06 Aug 7.3 02:05:06 10° NNW 02:06:14 10° N 02:07:21 10° N visible
06 Aug 6.8 04:05:24 10° NNW 04:09:44 19° NNE 04:13:56 10° ENE visible
06 Aug 4.7 21:10:31 10° SSW 21:19:49 75° ESE 21:27:06 10° NE visible
06 Aug 6.3 23:13:19 10° W 23:20:30 30° NW 23:26:32 10° NNE visible
07 Aug 7.3 01:21:09 10° NNW 01:23:20 11° NNW 01:25:26 10° N visible
07 Aug 7.0 03:23:46 10° N 03:27:07 14° NNE 03:30:21 10° NE visible
07 Aug 5.0 05:22:53 10° NNW 05:28:57 51° NE 05:35:05 10° SE visible
07 Aug 5.9 22:30:10 10° WSW 22:38:15 41° NW 22:44:51 10° NNE visible
08 Aug 7.2 00:37:01 10° NW 00:40:31 14° NNW 00:43:46 10° N visible
08 Aug 7.2 02:42:07 10° N 02:44:21 12° NNE 02:46:31 10° NE visible
08 Aug 5.8 04:41:08 10° NNW 04:46:50 35° NE 04:52:29 10° ESE visible
08 Aug 5.3 21:47:23 10° SW 21:56:09 57° NW 22:03:07 10° NNE visible
08 Aug 7.0 23:53:00 10° WNW 23:57:48 17° NNW 00:02:08 10° NNE visible
09 Aug 7.3 02:00:22 10° N 02:01:29 10° N 02:02:35 10° NNE visible
09 Aug 6.3 03:59:27 10° NNW 04:04:32 25° NE 04:09:32 10° E visible
09 Aug 4.9 21:05:00 10° SW 21:14:09 80° WNW 21:21:20 10° NNE visible
09 Aug 6.7 23:09:13 10° W 23:15:15 23° NW 23:20:31 10° NNE visible
